SCATSAT 1

Last updated on Tue Jun 17 2025 00:02:29 GMT+0000 (Coordinated Universal Time)

1 41790U 16059H 25167.38307131 .00001100 00000+0 15555-3 0 9994 2 41790 98.1687 221.6269 0055571 346.7963 13.1789 14.78236549 47527
UTC large
Height (km)
Speed (km/s)
/
Latitude / Longitude
Inclination (degrees)
Orbital Period (minutes)
Azimuth
Elevation
Range (km)
Doppler Factor

Next 0 passes for location: London (51.5072 / 0.1276)

Sorry there are no passes over London.